パンスターズ彗星

C/2016 C1 ( PanSTARRS )

English version
Home page
Updated on June 6, 2020

---------------------------------------------------------------------

・ プロフィール

発見日 2016年2月12日
発見光度 19.9等
発見者 Pan-STARRS 1 telescope (Haleakala)

・ 写真集

・ 軌道要素

Epoch 2016 Feb. 22.0 TT = JDT 2457440.5                                         
T 2016 Feb. 16.40123 TT                                 Rudenko                 
q   8.4593930            (2000.0)            P               Q                  
z  -0.0005820      Peri.  328.57043     -0.86189018     -0.50643719             
 +/-0.0000012      Node   181.78102     +0.41415194     -0.73238720             
e   1.0049235      Incl.   56.17871     -0.29261490     +0.45511577             
From 218 observations 2016 Feb. 12-2020 May 24, mean residual 0".5.             

・ 光度変化

        m1 = -14.5 + 5 logΔ + 30.0 log r

---------------------------------------------------------------------

軌道要素はM.P.E.C. 2020-L06に掲載されたものです。
光度グラフはComet for Windowsで作成したものです。

---------------------------------------------------------------------

Copyright(C) Seiichi Yoshida (comet@aerith.net). All rights reserved.